This is the latest recevied weather packets stored in our database for station/object WA4TPR. If no packets are shown the sender has not sent any weather packets the latest 10 day(s).
| Time | Temp. | Humidity | Pressure | Rain* | Wind** | Luminosity | Snow |
|---|---|---|---|---|---|---|---|
| 1778114544 | 28.33° C | 55% | 1019.9 hPa | 0 mm | - | 0 W/m² | - |
| 1778114239 | 28.33° C | 55% | 1019.6 hPa | 0 mm | - | 0 W/m² | - |
| 1778113935 | 28.89° C | 53% | 1019.2 hPa | 0 mm | - | 0 W/m² | - |
| 1778113631 | 29.44° C | 52% | 1019.2 hPa | 0 mm | - | 0 W/m² | - |
| 1778113327 | 29.44° C | 51% | 1019.2 hPa | 0 mm | - | 0 W/m² | - |
| 1778113024 | 29.44° C | 51% | 1019.1 hPa | 0 mm | - | 0 W/m² | - |
| 1778112721 | 30° C | 50% | 1019 hPa | 0 mm | - | 1 W/m² | - |
| 1778112417 | 30° C | 49% | 1019 hPa | 0 mm | - | 2 W/m² | - |
| 1778112113 | 30° C | 49% | 1019.1 hPa | 0 mm | - | 4 W/m² | - |
| 1778111810 | 30.56° C | 48% | 1018.7 hPa | 0 mm | - | 7 W/m² | - |
| 1778111506 | 30.56° C | 47% | 1019 hPa | 0 mm | - | 10 W/m² | - |
| 1778111203 | 31.11° C | 46% | 1018.9 hPa | 0 mm | - | 14 W/m² | - |
| 1778110900 | 31.67° C | 46% | 1018.9 hPa | 0 mm | - | 19 W/m² | - |
| 1778110597 | 31.67° C | 45% | 1018.7 hPa | 0 mm | - | 25 W/m² | - |
| 1778110294 | 31.67° C | 45% | 1018.9 hPa | 0 mm | - | 33 W/m² | - |
| 1778109990 | 32.22° C | 45% | 1018.8 hPa | 0 mm | - | 41 W/m² | - |
| 1778109686 | 32.22° C | 44% | 1018.9 hPa | 0 mm | - | 50 W/m² | - |
| 1778109383 | 32.78° C | 44% | 1019 hPa | 0 mm | - | 60 W/m² | - |
| 1778109081 | 32.78° C | 43% | 1018.9 hPa | 0 mm | - | 68 W/m² | - |
| 1778108778 | 33.33° C | 43% | 1019 hPa | 0 mm | - | 80 W/m² | - |
| 1778108475 | 33.33° C | 42% | 1019 hPa | 0 mm | - | 92 W/m² | - |
| 1778108171 | 33.33° C | 42% | 1018.9 hPa | 0 mm | - | 102 W/m² | - |
| 1778107868 | 33.33° C | 42% | 1018.8 hPa | 0 mm | - | 115 W/m² | - |
| 1778107565 | 33.33° C | 42% | 1018.8 hPa | 0 mm | - | 130 W/m² | - |
| 1778107261 | 33.33° C | 41% | 1019 hPa | 0 mm | - | 146 W/m² | - |
* Rain latest hour (hover to see other rain measurements)
** Current wind speed in m/s (hover to see current wind gust speed)